TimeMST,TemperatureF,Dew PointF,Humidity,Sea Level PressureIn,VisibilityMPH,Wind Direction,Wind SpeedMPH,Gust SpeedMPH,PrecipitationIn,Events,Conditions,WindDirDegrees,DateUTC
12:00 AM,23.0,19.4,86,30.20,9.0,SSW,8.1,-,N/A,,Clear,210,2013-02-02 07:00:00
1:00 AM,32.0,21.2,64,30.17,9.0,WSW,13.8,-,N/A,,Clear,240,2013-02-02 08:00:00
2:00 AM,35.6,23.0,60,30.15,9.0,WSW,19.6,25.3,N/A,,Clear,250,2013-02-02 09:00:00
3:00 AM,39.2,23.0,52,30.16,9.0,West,23.0,32.2,N/A,,Clear,270,2013-02-02 10:00:00
4:00 AM,39.2,23.0,52,30.18,9.0,West,26.5,33.4,N/A,,Scattered Clouds,270,2013-02-02 11:00:00
4:50 AM,35.6,23.0,60,30.25,9.0,NNW,13.8,25.3,N/A,,Partly Cloudy,340,2013-02-02 11:50:00
5:00 AM,35,23,51,30.25,10,NW,15.0,,,,,320,2013-02-02 12:00:00
5:00 AM,35.6,23.0,60,30.25,9.0,NW,12.7,19.6,N/A,,Scattered Clouds,320,2013-02-02 12:00:00
6:00 AM,30.2,21.2,69,30.30,15.0,NNW,9.2,-,N/A,,Mostly Cloudy,340,2013-02-02 13:00:00
7:00 AM,28.4,21.2,74,30.32,15.0,WSW,6.9,-,N/A,,Mostly Cloudy,240,2013-02-02 14:00:00
8:00 AM,28.4,23.0,80,30.34,40.0,SW,9.2,-,N/A,,Mostly Cloudy,230,2013-02-02 15:00:00
9:00 AM,28.4,23.0,80,30.37,40.0,WSW,8.1,-,N/A,,Partly Cloudy,240,2013-02-02 16:00:00
10:00 AM,35.6,26.6,70,30.34,40.0,South,6.9,-,N/A,,Partly Cloudy,190,2013-02-02 17:00:00
11:00 AM,41,27,46,30.33,10,South,8.1,,,,,190,2013-02-02 18:00:00
11:00 AM,41.0,26.6,57,30.32,40.0,South,8.1,-,N/A,,Partly Cloudy,180,2013-02-02 18:00:00
12:00 PM,44.6,26.6,49,30.29,40.0,SSW,10.4,-,N/A,,Clear,200,2013-02-02 19:00:00
1:00 PM,51.8,23.0,33,30.21,40.0,West,24.2,-,N/A,,Partly Cloudy,270,2013-02-02 20:00:00
2:00 PM,51.8,21.2,30,30.17,40.0,West,26.5,33.4,N/A,,Partly Cloudy,270,2013-02-02 21:00:00
3:00 PM,51.8,23.0,33,30.15,40.0,West,24.2,32.2,N/A,,Mostly Cloudy,260,2013-02-02 22:00:00
4:00 PM,51.8,23.0,33,30.15,40.0,West,17.3,26.5,N/A,,Mostly Cloudy,260,2013-02-02 23:00:00
5:00 PM,47,23,25,30.16,10,West,21.9,,,,,260,2013-02-03 00:00:00
5:00 PM,46.4,23.0,40,30.17,40.0,West,20.7,31.1,N/A,,Mostly Cloudy,260,2013-02-03 00:00:00
6:00 PM,46.4,23.0,40,30.16,40.0,West,20.7,28.8,N/A,,Mostly Cloudy,260,2013-02-03 01:00:00
7:00 PM,44.6,23.0,43,30.15,15.0,West,24.2,32.2,N/A,,Overcast,260,2013-02-03 02:00:00
8:00 PM,44.6,23.0,43,30.13,15.0,West,23.0,29.9,N/A,,Overcast,260,2013-02-03 03:00:00
9:00 PM,44.6,21.2,39,30.12,15.0,West,21.9,29.9,N/A,,Overcast,260,2013-02-03 04:00:00
10:00 PM,44.6,21.2,39,30.08,15.0,WSW,20.7,-,N/A,,Overcast,250,2013-02-03 05:00:00
10:58 PM,46.4,19.4,34,30.03,9.0,WSW,32.2,47.2,N/A,,Overcast,250,2013-02-03 05:58:00
11:00 PM,47,20,21,30.03,10,WSW,24.2,,,,Overcast,240,2013-02-03 06:00:00
11:00 PM,46.4,19.4,34,30.03,9.0,WSW,25.3,47.2,N/A,,Overcast,250,2013-02-03 06:00:00